Regional Weather Roundup
Issued by NWS

Home | Current Version | Previous Version | Text Only | Print | Product List | Glossary Off
Versions: 1 2 3 4 5 6 7 8 9 10 11 12 13 14 15 16 17 18 19 20 21 22 23 24 25 26 27 28 29 30 31 32 33 34 35 36 37 38 39 40 41 42 43 44 45 46 47 48 49 50

000
ASUS44 KMEG 310810
RWRTN
TENNESSEE HOURLY STATE WEATHER ROUNDUP
NATIONAL WEATHER SERVICE MEMPHIS TN
300 AM CDT MON AUG 31 2015

TNZ002-004-019-021-049-052-054-088>092-310900-
WEST TENNESSEE

CITY           SKY/WX    TMP DP  RH WIND       PRES   REMARKS
MEMPHIS INTL   PTCLDY    73  68  84 SE8       30.03S
NWS MEMPHIS      N/A     71 N/A N/A MISG        N/A
JACKSON        CLEAR     68  65  90 S5        30.05S
DYERSBURG      PTCLDY   N/A N/A N/A MISG        N/A
UNION CITY     CLEAR    N/A N/A N/A CALM      30.04S
PARIS            N/A     64  63  94 CALM      30.06F VSB 1
LEXINGTON        N/A     64  64 100 CALM      30.05S VSB 1/2
$$

TNZ008-025-027-028-033-062-065-066-310900-
NORTH MIDDLE TENNESSEE

CITY           SKY/WX    TMP DP  RH WIND       PRES   REMARKS
NASHVILLE      CLEAR     68  64  87 CALM      30.09S
CLARKSVILLE    CLEAR     65  63  93 SE3       30.06S
SMYRNA         FOG       66  64  94 CALM      30.09S VSB 3/4
COOKEVILLE     CLOUDY    66  66 100 CALM      30.10S VSB 1/4
CROSSVILLE     CLEAR     65  62  90 CALM      30.14F FOG
$$

TNZ061-075-076-078-094-096-097-310900-
SOUTH MIDDLE TENNESSEE

CITY           SKY/WX    TMP DP  RH WIND       PRES   REMARKS
FAYETTEVILLE   CLEAR     63  63 100 CALM      30.09S
TULLAHOMA      MOCLDY    63  63 100 CALM      30.11S VSB 3/4
WINCHESTER     CLEAR     63  63 100 CALM      30.09F
MCMINNVILLE    CLOUDY    63  63 100 CALM      30.10F VSB 1/4
COLUMBIA       CLEAR    N/A N/A N/A CALM      30.07S
SHELBYVILLE    CLEAR     64  64 100 E5        30.10S
$$

TNZ017-018-042-046-047-310900-
NORTHEAST TENNESSEE

CITY           SKY/WX    TMP DP  RH WIND       PRES   REMARKS
TRI CITIES     LGT RAIN  66  64  93 CALM      30.14R
ELIZABETHTON   LGT RAIN  63  63 100 E3        30.14F FOG
$$

TNZ012-013-036-069-073-074-310900-
CENTRAL EAST TENNESSEE

CITY           SKY/WX    TMP DP  RH WIND       PRES   REMARKS
KNOXVILLE      PTCLDY    67  66  97 CALM      30.09
OAK RIDGE      FAIR      69  64  84 CALM      30.11F
GATLINBURG     SUNNY     63  61  94 CALM      30.11S
MORRISTOWN     SUNNY     64  63  94 CALM      30.13S
$$

TNZ083-085-099-310900-
SOUTHEAST TENNESSEE

CITY           SKY/WX    TMP DP  RH WIND       PRES   REMARKS
CHATTANOOGA    PTCLDY    68  64  87 CALM      30.09F
$$

SKY/WX REPORTED AS FAIR MEANS FEW OR NO CLOUDS BELOW
12 THOUSAND FEET.




USA.gov is the U.S. government's official web portal to all federal, state and local government web resources and services.